Location: Dal�� Lhota
(48.7500°N, 14.0167°E)
Time: 23:03:17
(UTC+00:00)

CZ-2C R/B - Pass Details

Date: 24 September 2020
Orbit: 785 x 870 km, 98.2° (Epoch: 25 October)

Event Time Altitude Azimuth Distance (km) Brightness Sun altitude
Rises 17:24:47 0° 27° (NNE) 3,439 5.6 -5.4°
Reaches altitude 10° 17:28:01 10° 46° (NE) 2,508 4.8 -6.0°
Maximum altitude 17:31:40 18° 88° (E) 2,020 4.1 -6.6°
Drops below altitude 10° 17:35:20 10° 129° (SE) 2,512 4.7 -7.2°
Sets 17:38:34 0° 148° (SSE) 3,446 5.5 -7.7°
